Weather History for Lee's Summit, MO

Change the Weather History Date:

Saturday, March 2, 2013

  Actual Average (KMKC) Record (KMKC)
Temperature  
Mean Temperature 28 °F -  
Max Temperature 33 °F 45 °F 73 °F (2008)
Min Temperature 23 °F 27 °F 1 °F (2014)
Degree Days  
Heating Degree Days 37    
Moisture  
Dew Point 16 °F    
Average Humidity 63    
Maximum Humidity 75    
Minimum Humidity 48    
Precipitation  
Precipitation 0.00 in - - ()
Sea Level Pressure  
Sea Level Pressure 30.32 in    
Wind  
Wind Speed 8 mph (NNW)    
Max Wind Speed 13 mph    
Max Gust Speed -    
Visibility 10 miles    
Events      
Averages and records for this station are not official NWS values.
T = Trace of Precipitation, MM = Missing Value Source: NWS Daily Summary

Daily Weather History Graph

Daily Weather History Graph

Search for Another Location

Airport:

Trip Planner

Search our weather history database for the weather conditions in past years. The results will help you decide how hot, cold, wet, or windy it might be!

Date:

Astronomy

Mar. 02, 2013 Rise Set
Actual Time 6:48 AM CST 6:11 PM CST
Civil Twilight 6:21 AM CST 6:38 PM CST
Nautical Twilight 5:50 AM CST 7:09 PM CST
Astronomical Twilight 5:19 AM CST 7:40 PM CST
Moon 11:48 PM CST (3/2) 9:19 AM CST (3/2)
Length of Visible Light 12h 16m
Length of Day
11h 23m
Waning Gibbous, 74% of the Moon is Illuminated
Mar 2
Waning Gibbous
Mar 4
Last Quarter
Mar 11
New
Mar 19
First Quarter
Mar 27
Full

Hourly Weather History & Observations

Time (CST) Temp. Windchill Dew Point Humidity Pressure Visibility Wind Dir Wind Speed Gust Speed Precip Events Conditions
12:53 AM 26.1 °F 15.6 °F 19.0 °F 75% 30.34 in 10.0 mi North 11.5 mph - N/A   Overcast
1:53 AM 26.1 °F 16.8 °F 18.0 °F 71% 30.34 in 10.0 mi North 9.2 mph - N/A   Overcast
2:53 AM 26.1 °F 16.2 °F 17.1 °F 69% 30.33 in 10.0 mi North 10.4 mph - N/A   Overcast
3:53 AM 25.0 °F 13.6 °F 17.1 °F 72% 30.33 in 10.0 mi North 12.7 mph - N/A   Overcast
4:53 AM 25.0 °F 16.3 °F 16.0 °F 69% 30.34 in 10.0 mi NNW 8.1 mph - N/A   Overcast
6:53 AM 23.0 °F 11.1 °F 14.0 °F 68% 30.37 in 10.0 mi North 12.7 mph - N/A   Overcast
7:53 AM 23.0 °F 12.4 °F 14.0 °F 68% 30.38 in 10.0 mi North 10.4 mph - N/A   Overcast
8:53 AM 23.0 °F 11.7 °F 14.0 °F 68% 30.39 in 10.0 mi NNW 11.5 mph - N/A   Overcast
9:53 AM 23.0 °F 15.8 °F 14.0 °F 68% 30.38 in 10.0 mi NNW 5.8 mph - N/A   Mostly Cloudy
10:16 AM 24.8 °F 16.9 °F 14.0 °F 64% 30.34 in 10.0 mi North 6.9 mph - N/A   Scattered Clouds
10:53 AM 26.1 °F 19.4 °F 15.1 °F 63% 30.38 in 10.0 mi NNW 5.8 mph - N/A   Clear
11:53 AM 28.9 °F 22.8 °F 15.1 °F 56% 30.36 in 10.0 mi NNW 5.8 mph - N/A   Clear
12:53 PM 30.0 °F 24.1 °F 15.1 °F 54% 30.34 in 10.0 mi NW 5.8 mph - N/A   Clear
1:53 PM 32.0 °F 28.7 °F 15.1 °F 50% 30.32 in 10.0 mi NNE 3.5 mph - N/A   Clear
2:53 PM 30.9 °F - 15.1 °F 52% 30.30 in 10.0 mi Calm Calm - N/A   Clear
3:53 PM 33.1 °F - 15.1 °F 48% 30.29 in 10.0 mi Calm Calm - N/A   Clear
4:53 PM 32.0 °F - 14.0 °F 48% 30.28 in 10.0 mi Calm Calm - N/A   Clear
5:53 PM 30.0 °F 23.2 °F 17.1 °F 59% 30.29 in 10.0 mi SSW 6.9 mph - N/A   Clear
7:53 PM 27.0 °F 21.6 °F 17.1 °F 66% 30.27 in 10.0 mi SSW 4.6 mph - N/A   Overcast
8:53 PM 25.0 °F 20.7 °F 16.0 °F 69% 30.26 in 10.0 mi SW 3.5 mph - N/A   Partly Cloudy
9:53 PM 26.1 °F 19.4 °F 17.1 °F 69% 30.25 in 10.0 mi SW 5.8 mph - N/A   Overcast
10:53 PM 27.0 °F 21.6 °F 18.0 °F 69% 30.24 in 10.0 mi SSW 4.6 mph - N/A   Overcast